{"data":{"norad_id":42767,"intl_designator":"2017-036C","name":"CARTOSAT-2E","alt_names":[],"object_type":"PAYLOAD","status":"ACTIVE","operator":null,"country":"IND","launch_date":"2017-06-23","launch_site_code":"SRILR","launch_vehicle":null,"mission":null,"orbit_class":"UNKNOWN","rcs_meters":null,"size_class":null,"mass_kg":null,"dimensions":null,"purposes":["earth_obs"],"wikipedia_slug":null,"has_3d_model":false,"image_url":null,"decayed_at":null,"tle_current":{"epoch":"2026-05-25T04:33:35.410752Z","epoch_age_seconds":69015,"freshness":"FRESH","line1":"1 42767U 17036C   26145.18999318  .00003990  00000+0  19241-3 0  9999","line2":"2 42767  97.4282 205.3690 0003655  46.1267 314.0269 15.19271185494653","mean_motion":15.19271185,"eccentricity":0.0003655,"inclination_deg":97.4282,"raan_deg":205.369,"arg_perigee_deg":46.1267,"mean_anomaly_deg":314.0269,"bstar":0.00019241,"rev_number":49465,"period_min":94.782288653753,"perigee_km":505.52509764288,"apogee_km":510.558894489,"semimajor_km":6886.1789960659,"source":"CELESTRAK","updated_at":"2026-05-25T13:38:12.825680Z"}}}